Home   Weather   Voronezh   Past weeks

Flag for Russia Past Weather in Voronezh, Russia — Yesterday and Last 2 Weeks

Now
45 °F

Sunny.


Feels Like: 40 °F
Forecast: 38 / 50 °F
Wind: 8 mph from Northwest

Location: Voronez

Current Time: Sep 28, 2016 at 8:17:13 AM

Latest Report: Sep 28, 2016 at 7:30 AM


Visibility: 10 mi

Pressure: 30.09 "Hg

Humidity: 93%

Dew Point: 43 °F

Location of VoronezhLocation

Past Weather in Voronezh — Graph

°F

Voronezh Temperature Yesterday

Maximum temperature yesterday: 50 °F (at 12:00 AM)
Minimum temperature yesterday: 46 °F (at 10:00 PM)
Average temperature yesterday: 48 °F

High & Low Weather Summary for the Past Weeks

 TemperatureHumidityPressure
High73 °F (Sep 13, 2:00 PM)100% (Sep 17, 5:00 AM)30.15 "Hg (Sep 17, 5:00 AM)
Low36 °F (Sep 24, 3:30 AM)20% (Sep 13, 4:00 PM)29.59 "Hg (Sep 21, 10:00 AM)
Average50 °F78%29.89 "Hg
* Reported Sep 13 7:00 AM — Sep 28 7:00 AM, Voronezh, Weather by CustomWeather, © 2016

Note: Actual official high and low records may vary slightly from our data, if they occured in-between our weather recording intervals... More about our weather records

Advertising

Voronezh Weather History for the Previous 24 Hours

Scroll right to see more
 ConditionsComfort  
Time TempWeatherWind HumidityBarometerVisibility
7:00 AM
Wed, Sep 28
45 °FSunny.8 mph87%30.09 "Hg10 mi
6:30 AM45 °FSunny.8 mph87%30.09 "Hg10 mi
6:00 AM43 °FClear.8 mph93%30.09 "Hg10 mi
5:30 AM43 °FClear.10 mph93%30.09 "Hg10 mi
5:00 AM45 °FClear.10 mph87%30.09 "Hg10 mi
4:30 AM45 °FClear.10 mph87%30.09 "Hg10 mi
4:00 AM45 °FClear.10 mph87%30.07 "Hg10 mi
3:00 AM45 °FOvercast.10 mph93%30.07 "HgN/A
2:30 AM46 °FOvercast.8 mph87%30.07 "HgN/A
2:00 AM46 °FLight rain. Overcast.8 mph87%30.07 "Hg6 mi
1:30 AM46 °FOvercast.8 mph87%30.07 "Hg6 mi
1:00 AM46 °FOvercast.8 mph87%30.07 "HgN/A
12:30 AM46 °FOvercast.8 mph87%30.07 "HgN/A
12:00 AM46 °FOvercast.8 mph87%30.07 "HgN/A
11:30 PM
Tue, Sep 27
46 °FOvercast.8 mph87%30.07 "HgN/A
11:00 PM46 °FOvercast.10 mph87%30.07 "HgN/A
10:30 PM46 °FOvercast.8 mph87%30.07 "HgN/A
10:00 PM46 °FLight rain. Overcast.8 mph87%30.07 "HgN/A
9:00 PM48 °FOvercast.8 mph82%30.09 "HgN/A
8:30 PM48 °FOvercast.8 mph82%30.09 "HgN/A
8:00 PM48 °FOvercast.8 mph82%30.07 "HgN/A
7:30 PM48 °FLight rain. Overcast.8 mph82%30.07 "HgN/A
7:00 PM48 °FOvercast.8 mph82%30.07 "HgN/A
6:30 PM48 °FOvercast.10 mph82%30.07 "HgN/A
6:00 PM48 °FOvercast.10 mph82%30.07 "HgN/A
5:30 PM48 °FOvercast.8 mph82%30.07 "HgN/A
5:00 PM48 °FOvercast.10 mph82%30.04 "HgN/A
4:30 PM48 °FOvercast.8 mph82%30.04 "HgN/A
4:00 PM48 °FOvercast.10 mph87%30.04 "HgN/A
3:30 PM48 °FOvercast.10 mph87%30.04 "HgN/A
3:00 PM48 °FLight rain. Overcast.10 mph87%30.04 "HgN/A
2:30 PM48 °FOvercast.10 mph87%30.04 "HgN/A
2:00 PM50 °FOvercast.10 mph82%30.04 "HgN/A
1:30 PM48 °FOvercast.10 mph87%30.01 "HgN/A
1:00 PM48 °FLow clouds.10 mph87%30.01 "HgN/A
12:30 PM48 °FOvercast.10 mph87%30.01 "HgN/A
12:00 PM48 °FLow clouds.10 mph94%30.01 "HgN/A
11:30 AM48 °FLow clouds.10 mph87%30.01 "Hg6 mi
11:00 AM48 °FLow clouds.10 mph87%30.01 "Hg4 mi
10:30 AM48 °FDrizzle. Low clouds.10 mph87%30.01 "Hg5 mi
10:00 AM48 °FLow clouds.10 mph87%30.01 "Hg6 mi
9:30 AM48 °FLow clouds.8 mph87%29.98 "Hg5 mi
9:00 AM48 °FLow clouds.13 mph87%29.98 "Hg6 mi
8:30 AM48 °FDrizzle. Fog.10 mph94%29.98 "Hg3 mi
8:00 AM48 °FLow clouds.10 mph94%29.98 "HgN/A
Weather by CustomWeather, © 2016

See weather overviewHow to use our weather pages